User: anonymous   Login
Location: Sperry Observatory
(40.6664°N, 74.3236°W)
Time: 10:55:21
(UTC-05:00)
Language:

UOSAT-12 - Orbit

View from above orbital plane
View from above orbital plane
View from above satellite
View from above satellite

Ground track
Ground track

The orbit data is extracted from the following two-line orbital elements,

1 25693U 99021A   14326.88310319  .00000689  00000-0  10778-3 0  6700
2 25693 064.5559 133.6748 0049766 267.7282 200.5446 14.80154279841408
Epoch (UTC): 22 November 2014 21:11:40
Eccentricity: 0.0049766
inclination: 64.5559°
perigee height: 594 km
apogee height: 664 km
right ascension of ascending node: 133.6748°
argument of perigee: 267.7282°
revolutions per day: 14.80154279
mean anomaly at epoch: 200.5446°
orbit number at epoch: 84140

The dashed part of the orbit path shows where the satellite is in the earth's shadow,  

DLR